Retour au catalogue

FENGYUN 1C DEB

LostPO
NORAD 31637·DEBRIS·🇨🇳 China

Lancé May 10, 1999 depuis Taiyuan Satellite Launch Center

Loading…

Prochains Passages (prochaines 24 heures)

TLE

PériméSource: Space-Track

Époque: Sep 23, 2022, 10:14 UTC

1 31637U 99025CAT 22266.42706648  .00003947  00000-0  14688-2 0  9992
2 31637  99.1014 129.5630 0055489  10.4028 349.8288 14.31802759795539

Suivez FENGYUN 1C DEB en temps réel avec AllMySat

Download on the App Store